COSMOS 1617

Satellite information

Favourite Embed

Satellite Type and Status

PAYLOADIN ORBIT

Key statistics

Satellite COSMOS 1617 at a glance.

Uptime

14896

Days in orbit

Revolutions

≈ 12.6

Per day

Orbit

LEO

Low Earth Orbit

Inclination

82.6

Latest

Satellite identification and parameters

Extended collection of information and parameters for COSMOS 1617.

Object identification

Identified? True

Debris? False

Object name: COSMOS 1617

International designator: 1985-003A

Object number (NORAD): 15469

Object ID (CCSDS): 15469

Country: COMMONWEALTH OF INDEPENDENT STATES (CIS)

Current information (Y/N): Y

RCS size: LARGE

Orbital parameters

Period: 114.055 minutes

Inclination: 82.6094 deg

SMA: 7790.599 km

Apoapsis: 1414.217 km

Periapsis: 1410.711 km

RAAN: 263.4835 deg

Eccentricy: 0.00022506

Argument of periapsis: 89.3862 deg

Mean anomaly: 334.5047 deg

Mean motion: 12.62543891 rev/day

Mean motion (dot): 0.00000033 rev/day2

B* drag term: 0.00012316546 1/REarth

Two-line elements (TLE)

Creation date: Oct. 28, 2025, 2:18 a.m.

Reference frame: TEME

Reference center: EARTH

Epoch: Oct. 27, 2025, 11:38 p.m. UTC

TLE line 0: 0 COSMOS 1617

TLE line 1: 1 15469U 85003A 25300.98486544 .00000033 00000-0 12317-3 0 9992

TLE line 2: 2 15469 82.6094 263.4835 0002251 89.3862 334.5047 12.62543891879138

Live tracking on map

Real-time ground track for satellite COSMOS 1617.

In-orbit conjunctions

A list of the most updated potential collisions computed for object COSMOS 1617.

Target Orbit TCA Probability of collision Miss distance Type
FENGYUN 1C DEB SSO 2024-11-06 19:01:47 0.0001998579 333.0 (m) DEBRIS

Associated space launch

Second generation store-dump military communications satellite

COSMOS 1617 was lifted into orbit during the mission ‘Tsiklon-3 | Strela-3 1 to 6’, on board a Tsiklon-3 space rocket.

The launch took place on Jan. 15, 1985, 2:50 p.m. from 32/1.

For more information about the launch, click the button.

Launch to space Tsiklon-3 | Strela-3 1 to 6
Tsiklon-3 | Strela-3 1 to 6

Agency: N/A

Status: Launch Successful

Launch date: Jan. 15, 1985, 2:50 p.m. UTC

Rocket: Tsiklon-3

Launch pad: 32/1

Location: Plesetsk Cosmodrome, Russian Federation

...

Latest news about this satellite

There are no fresh news available about this satellite. Check back as we update our databases every day.


Newsletter sign-up

Weekly statistics, charts and insights to help you stay on top of the space industry.